Location: Briis
(48.6240°N, 2.1211°E)
Time: 00:49:15
(UTC+00:00)

Cosmos 1844 Rocket - Pass Details

Date: 25 September 2020
Orbit: 823 x 846 km, 71.0° (Epoch: 23 October)

Event Time Altitude Azimuth Distance (km) Brightness Sun altitude
Rises 04:28:03 0° 328° (NNW) 3,398 5.7 -13.1°
Reaches altitude 10° 04:30:33 10° 324° (NW) 2,463 4.9 -12.7°
Maximum altitude 04:36:00 52° 249° (WSW) 1,041 2.8 -11.8°
Drops below altitude 10° 04:41:27 10° 175° (S) 2,458 5.1 -10.9°
Sets 04:43:57 0° 170° (S) 3,390 5.8 -10.5°
